{"data":{"norad_id":47366,"epoch":"2026-05-25T01:41:22.153920Z","epoch_age_seconds":83024,"freshness":"FRESH","line1":"1 47366U 21005T   26145.07039530  .00004647  00000+0  16134-3 0  9997","line2":"2 47366  53.1603  67.3470 0001219  91.8067 268.3074 15.31715952294720","mean_motion":15.31715952,"eccentricity":0.0001219,"inclination_deg":53.1603,"raan_deg":67.347,"arg_perigee_deg":91.8067,"mean_anomaly_deg":268.3074,"bstar":0.00016134,"rev_number":29472,"period_min":94.012208864167,"perigee_km":469.85757124724,"apogee_km":471.52731586558,"semimajor_km":6848.8294435564,"source":"CELESTRAK","updated_at":"2026-05-25T13:38:16.525949Z"}}